Weather History for Minneapolis Crystal, MN

Change the Weather History Date:

Saturday, February 23, 2013

  Actual Average Record
Temperature  
Mean Temperature 24 °F -  
Max Temperature 30 °F 30 °F 51 °F (2002)
Min Temperature 19 °F 15 °F -8 °F (1993)
Degree Days  
Heating Degree Days 40    
Moisture  
Dew Point 19 °F    
Average Humidity 80    
Maximum Humidity 92    
Minimum Humidity 69    
Precipitation  
Precipitation 0.00 in - - ()
Sea Level Pressure  
Sea Level Pressure 29.88 in    
Wind  
Wind Speed 5 mph (West)    
Max Wind Speed 8 mph    
Max Gust Speed -    
Visibility 8 miles    
Events      
Averages and records for this station are not official NWS values.
T = Trace of Precipitation, MM = Missing Value Source: NWS Daily Summary

Daily Weather History Graph

Daily Weather History Graph

Search for Another Location

Airport:

Trip Planner

Search our weather history database for the weather conditions in past years. The results will help you decide how hot, cold, wet, or windy it might be!

Date:

Astronomy

Feb. 23, 2013 Rise Set
Actual Time 7:01 AM CST 5:52 PM CST
Civil Twilight 6:31 AM CST 6:22 PM CST
Nautical Twilight 5:57 AM CST 6:56 PM CST
Astronomical Twilight 5:23 AM CST 7:30 PM CST
Moon 4:01 PM CST (2/23) 5:27 AM CST (2/23)
Length of Visible Light 11h 51m
Length of Day
10h 51m
Waxing Gibbous, 95% of the Moon is Illuminated
Feb 23
Waxing Gibbous
Feb 25
Full
Mar 4
Last Quarter
Mar 11
New
Mar 19
First Quarter

Hourly Weather History & Observations

Time (CST) Temp. Windchill Dew Point Humidity Pressure Visibility Wind Dir Wind Speed Gust Speed Precip Events Conditions
12:53 AM 19.9 °F 13.4 °F 17.1 °F 89% 29.88 in 9.0 mi West 4.6 mph - N/A   Mostly Cloudy
1:53 AM 19.0 °F 12.3 °F 16.0 °F 88% 29.88 in 8.0 mi West 4.6 mph - N/A   Partly Cloudy
2:53 AM 19.9 °F 12.1 °F 17.1 °F 89% 29.87 in 10.0 mi SW 5.8 mph - N/A   Overcast
3:53 AM 19.9 °F 13.4 °F 17.1 °F 89% 29.86 in 9.0 mi WSW 4.6 mph - N/A   Overcast
4:53 AM 21.0 °F 12.4 °F 17.1 °F 85% 29.87 in 7.0 mi West 6.9 mph - N/A   Overcast
5:53 AM 21.0 °F 14.6 °F 17.1 °F 85% 29.87 in 8.0 mi West 4.6 mph - N/A   Overcast
6:53 AM 21.0 °F 13.4 °F 18.0 °F 88% 29.88 in 7.0 mi West 5.8 mph - 0.00 in   Overcast
7:53 AM 21.0 °F 14.6 °F 18.0 °F 88% 29.88 in 5.0 mi West 4.6 mph - N/A   Overcast
8:53 AM 21.9 °F 15.7 °F 19.9 °F 92% 29.88 in 4.0 mi WNW 4.6 mph - N/A   Overcast
9:30 AM 23.0 °F 13.9 °F 19.4 °F 86% 29.84 in 5.0 mi NW 8.1 mph - N/A   Mostly Cloudy
9:41 AM 23.0 °F 17.0 °F 19.4 °F 86% 29.85 in 6.0 mi NW 4.6 mph - N/A   Overcast
9:51 AM 24.8 °F 19.1 °F 21.2 °F 86% 29.85 in 6.0 mi WNW 4.6 mph - N/A   Overcast
9:53 AM 25.0 °F 18.1 °F 21.0 °F 85% 29.89 in 6.0 mi WNW 5.8 mph - N/A   Overcast
10:26 AM 24.8 °F 17.9 °F 21.2 °F 86% 29.85 in 7.0 mi WNW 5.8 mph - N/A   Mostly Cloudy
10:53 AM 27.0 °F 21.6 °F 21.0 °F 78% 29.89 in 8.0 mi Variable 4.6 mph - N/A   Mostly Cloudy
11:53 AM 28.0 °F 20.8 °F 21.0 °F 75% 29.89 in 10.0 mi NW 6.9 mph - N/A   Overcast
12:29 PM 28.4 °F 24.6 °F 21.2 °F 74% 29.84 in 10.0 mi WNW 3.5 mph - N/A   Overcast
12:53 PM 30.0 °F 25.2 °F 21.9 °F 72% 29.88 in 10.0 mi WNW 4.6 mph - N/A   Mostly Cloudy
1:05 PM 28.4 °F 24.6 °F 21.2 °F 74% 29.83 in 10.0 mi West 3.5 mph - N/A   Scattered Clouds
1:23 PM 30.2 °F 26.7 °F 21.2 °F 69% 29.83 in 10.0 mi WNW 3.5 mph - N/A   Mostly Cloudy
1:53 PM 28.9 °F 23.9 °F 21.0 °F 72% 29.87 in 10.0 mi WNW 4.6 mph - N/A   Scattered Clouds
2:53 PM 30.0 °F 24.1 °F 21.0 °F 69% 29.87 in 10.0 mi WNW 5.8 mph - N/A   Scattered Clouds
3:12 PM 30.2 °F 25.4 °F 21.2 °F 69% 29.83 in 10.0 mi Variable 4.6 mph - N/A   Mostly Cloudy
3:53 PM 30.0 °F 24.1 °F 21.0 °F 69% 29.88 in 10.0 mi SW 5.8 mph - N/A   Overcast
4:53 PM 28.0 °F 20.0 °F 19.9 °F 72% 29.89 in 9.0 mi SW 8.1 mph - N/A   Overcast
5:53 PM 26.1 °F 18.4 °F 19.0 °F 75% 29.90 in 10.0 mi SW 6.9 mph - N/A   Overcast
6:53 PM 25.0 °F 18.1 °F 17.1 °F 72% 29.93 in 10.0 mi SW 5.8 mph - N/A   Overcast
7:53 PM 24.1 °F 19.7 °F 17.1 °F 75% 29.94 in 10.0 mi SW 3.5 mph - N/A   Overcast
8:53 PM 23.0 °F 17.0 °F 17.1 °F 78% 29.95 in 10.0 mi WSW 4.6 mph - N/A   Overcast
9:53 PM 23.0 °F - 17.1 °F 78% 29.96 in 10.0 mi Calm Calm - N/A   Overcast
10:27 PM 23.0 °F - 17.6 °F 80% 29.92 in 9.0 mi Calm Calm - N/A   Overcast
10:53 PM 21.9 °F 14.5 °F 17.1 °F 82% 29.97 in 9.0 mi SW 5.8 mph - N/A   Overcast
11:53 PM 19.0 °F 11.1 °F 15.1 °F 85% 29.98 in 8.0 mi SW 5.8 mph - N/A   Mostly Cloudy